This is the latest recevied weather packets stored in our database for station/object KC5DAQ-29. If no packets are shown the sender has not sent any weather packets the latest 10 day(s).
| Time | Temp. | Humidity | Pressure | Rain* | Wind** | Luminosity | Snow |
|---|---|---|---|---|---|---|---|
| 1777223764 | 26.67° C | 100% | 1008.2 hPa | 0 mm | - | 120 W/m² | - |
| 1777223704 | 26.67° C | 100% | 1008.1 hPa | 0 mm | - | 132 W/m² | - |
| 1777223645 | 26.67° C | 100% | 1008.2 hPa | 0 mm | - | 148 W/m² | - |
| 1777223584 | 26.67° C | 100% | 1008.2 hPa | 0 mm | - | 165 W/m² | - |
| 1777223524 | 26.67° C | 100% | 1008.2 hPa | 0 mm | - | 164 W/m² | - |
| 1777223465 | 26.67° C | 100% | 1008.2 hPa | 0 mm | - | 164 W/m² | - |
| 1777223404 | 26.67° C | 100% | 1008.3 hPa | 0 mm | - | 164 W/m² | - |
| 1777223345 | 26.67° C | 100% | 1008.2 hPa | 0 mm | - | 164 W/m² | - |
| 1777223285 | 26.67° C | 100% | 1008.2 hPa | 0 mm | - | 164 W/m² | - |
| 1777223223 | 26.67° C | 100% | 1008.2 hPa | 0 mm | - | 164 W/m² | - |
| 1777223163 | 26.67° C | 100% | 1008.2 hPa | 0 mm | - | 164 W/m² | - |
| 1777223105 | 26.67° C | 100% | 1008.2 hPa | 0 mm | - | 164 W/m² | - |
| 1777223043 | 26.67° C | 100% | 1008.3 hPa | 0 mm | - | 139 W/m² | - |
| 1777222983 | 26.67° C | 100% | 1008.3 hPa | 0 mm | - | 139 W/m² | - |
| 1777222923 | 26.67° C | 100% | 1008.3 hPa | 0 mm | - | 137 W/m² | - |
| 1777222863 | 26.67° C | 100% | 1008.3 hPa | 0 mm | - | 193 W/m² | - |
| 1777222804 | 26.67° C | 100% | 1008.3 hPa | 0 mm | - | 193 W/m² | - |
| 1777222742 | 26.67° C | 100% | 1008.2 hPa | 0 mm | - | 206 W/m² | - |
| 1777222684 | 26.67° C | 100% | 1008.2 hPa | 0 mm | - | 206 W/m² | - |
| 1777222623 | 26.67° C | 100% | 1008.2 hPa | 0 mm | - | 206 W/m² | - |
| 1777222564 | 26.67° C | 100% | 1008.2 hPa | 0 mm | - | 206 W/m² | - |
| 1777222503 | 26.67° C | 100% | 1008.2 hPa | 0 mm | - | 206 W/m² | - |
| 1777222442 | 26.67° C | 100% | 1008.3 hPa | 0 mm | - | 197 W/m² | - |
| 1777222383 | 26.67° C | 100% | 1008.1 hPa | 0 mm | - | 197 W/m² | - |
| 1777222323 | 26.67° C | 100% | 1008.2 hPa | 0 mm | - | 197 W/m² | - |
* Rain latest hour (hover to see other rain measurements)
** Current wind speed in m/s (hover to see current wind gust speed)